Simultaneous Nadir Overpasses (SNOs) Predictions

Prediction of SNOs between LANDSAT-8 and NOAA-19 Satellite Orbit:

Table of predicted SNOs for the next 14.0 days since TLE Epoch: 2/28/2014
Index Date (LANDSAT-8) Time (LANDSAT-8) Lat,Lon (LANDSAT-8) SZA (LANDSAT-8 ) Date (NOAA-19) Time (NOAA-19) Lat,Lon (NOAA-19) SZA (NOAA-19 ) Distance(km) Time Diff (sec)
1 03/01/2014 10:28:43 -71.62,-158.44 100.90 03/01/2014 10:28:21 -71.60,-158.42 100.92 2.37 22
2 03/01/2014 11:18:11 71.47, 8.95 78.94 03/01/2014 11:19:21 71.48, 9.03 78.95 3.46 70
3 03/03/2014 15:12:57 -71.63, 130.52 101.73 03/03/2014 15:12:23 -71.65, 130.50 101.71 2.08 34
4 03/03/2014 16:02:24 71.53, -62.01 78.16 03/03/2014 16:03:22 71.52, -62.01 78.15 1.56 58
5 03/05/2014 19:57:10 -71.68, 59.53 102.53 03/05/2014 19:56:24 -71.67, 59.49 102.54 2.43 46
6 03/05/2014 20:46:37 71.58,-133.00 77.36 03/05/2014 20:47:23 71.57,-133.08 77.35 3.15 46
7 03/08/2014 00:41:22 -71.72, -11.48 103.36 03/08/2014 00:40:24 -71.70, -11.55 103.36 3.27 58
8 03/08/2014 01:30:50 71.55, 155.90 76.48 03/08/2014 01:31:22 71.58, 155.93 76.50 2.65 32
9 03/10/2014 05:25:36 -71.68, -82.60 104.25 03/10/2014 05:24:24 -71.70, -82.52 104.23 3.49 72
10 03/10/2014 06:15:02 71.62, 84.95 75.68 03/10/2014 06:15:22 71.60, 84.91 75.66 2.58 20
11 03/12/2014 10:09:43 -72.00,-153.12 104.81 03/12/2014 10:08:31 -72.06,-154.20 104.71 37.89 72
12 03/12/2014 10:59:15 71.61, 13.87 74.81 03/12/2014 10:59:22 71.64, 13.86 74.84 2.75 7
